Simultaneous Nadir Overpasses (SNOs) Predictions

Prediction of SNOs near US between NOAA-19 and NPP Satellite Orbit:

Table of predicted SNOs near US for the next 10.0 days since TLE Epoch: 7/13/2013
Index Date (NOAA-19) Time (NOAA-19) NOAA-19 Lat,Lon Date (NPP) Time (NPP) NPP Lat,Lon Distance(km) Time Diff (sec)
1 07/21/2013 19:51:15 49.91,-103.60 07/21/2013 19:51:16 49.26,-106.85 245.19 1
2 07/22/2013 08:12:15 35.66, -91.76 07/22/2013 08:08:06 36.17, -94.39 243.45 249
3 07/22/2013 09:54:53 33.72,-117.87 07/22/2013 09:50:10 34.18,-120.36 235.88 283
4 07/22/2013 17:58:14 49.96, -75.36 07/22/2013 17:50:52 49.70, -76.91 114.87 442
5 07/22/2013 19:40:19 50.00,-100.89 07/22/2013 19:32:23 49.77,-102.32 104.87 476
